Location: 5810 Zion Rd, Cleves, OH 45002, USA
(39.1922°N, 84.7113°W)
Time: 18:22:25
(UTC-05:00)

Courier 1B Rocket - Pass Details

Date: 08 December 2019
Orbit: 920 x 1202 km, 28.2° (Epoch: 26 January)

Event Time Altitude Azimuth Distance (km) Brightness Sun altitude
Rises 06:45:33 0° 218° (SW) 3,797 7.9 -11.4°
Reaches altitude 10° 06:49:18 10° 200° (SSW) 2,788 7.4 -10.7°
Maximum altitude 06:53:31 18° 160° (SSE) 2,226 7.5 -9.9°
Drops below altitude 10° 06:57:37 10° 121° (ESE) 2,680 8.9 -9.2°
Sets 07:01:06 0° 102° (ESE) 3,591 10.0 -8.6°
